User: anonymous   Login
Location: Montauk Point State Park
(41.0718°N, 71.8593°W)
Time: 13:30:53
(UTC-04:00)
Language:

Cosmos 1844 - Orbit

View from above orbital plane
View from above orbital plane
View from above satellite
View from above satellite

Ground track
Ground track

The orbit data is extracted from the following two-line orbital elements,

1 17973U 87041A   15089.22235663  .00000382  00000-0  22563-3 0  9993
2 17973 070.8992 180.5394 0033103 261.0415 125.3929 14.13976236438652
Epoch (UTC): 30 March 2015 05:20:11
Eccentricity: 0.0033103
inclination: 70.8992°
perigee height: 822 km
apogee height: 870 km
right ascension of ascending node: 180.5394°
argument of perigee: 261.0415°
revolutions per day: 14.13976236
mean anomaly at epoch: 125.3929°
orbit number at epoch: 43865

The dashed part of the orbit path shows where the satellite is in the earth's shadow,  

DLR